Wind_Speed
7 3 11 10 7 7 6 7 7 8 7 8 10 8 6 5 3 4 5 5 5 5 5 5 4 3 2 2 3 3 2 1 2 6 9 7 5 2 6 7 8 10 10
8 5 11 10 8 7 7 7 8 8 8 9 9 8 6 6 4 3 4 5 5 5 5 5 3 2 2 3 2 1 1 2 5 5 6 11 1 4 4 5 8 10 11
8 7 11 10 9 8 7 7 8 8 8 9 9 8 6 6 4 4 4 5 5 5 4 3 2 2 2 1 1 2 2 4 3 6 7 11 7 5 5 7 9 10 12
8 8 12 11 10 8 7 8 9 8 8 10 10 9 7 6 5 4 5 5 4 4 3 2 2 2 0 1 1 2 3 3 4 8 8 5 6 6 5 6 7 8 10
5 7 13 12 11 10 8 8 8 8 8 10 10 10 9 7 6 5 5 5 4 3 2 1 1 1 1 1 1 1 2 5 4 8 2 7 4 7 9 7 9 16 11
3 7 7 11 11 11 9 9 8 8 8 9 11 11 10 9 7 7 6 6 5 3 2 1 0 0 1 1 1 2 3 3 4 1 8 8 4 10 12 9 9 11 8
7 9 10 8 12 11 10 10 9 9 9 9 11 11 11 9 9 9 8 7 6 4 2 1 1 1 2 2 2 1 3 4 4 2 16 4 5 8 13 9 9 8 4
4 12 14 14 14 13 12 11 11 10 10 10 11 11 11 11 11 11 10 8 7 5 3 2 1 2 2 3 2 1 2 4 1 2 5 2 5 13 3 6 6 5 1
9 10 17 12 17 16 14 13 13 12 12 12 13 13 13 12 13 13 12 10 8 6 5 4 3 3 3 3 3 2 3 5 2 4 6 2 6 2 2 4 4 5 4
8 12 17 14 18 19 17 16 16 15 14 14 15 15 15 15 15 15 14 12 11 9 7 6 5 5 5 5 4 4 5 6 0 7 1 3 1 2 3 4 6 6 4
8 8 13 17 14 19 19 18 19 18 18 18 18 18 18 17 17 16 15 14 13 11 9 8 7 7 7 7 7 7 7 8 4 2 3 2 6 4 6 7 8 6 2
11 12 14 15 15 16 17 20 22 22 22 21 21 21 20 18 18 18 17 17 16 14 13 11 10 9 9 8 8 8 7 6 2 5 7 8 4 6 8 8 7 5 4
11 11 14 14 16 17 13 19 21 25 25 25 24 23 22 20 16 13 17 19 19 18 17 15 14 12 10 5 4 4 7 5 9 9 8 10 5 6 10 12 11 8 7
12 13 14 14 16 21 21 24 21 21 27 28 27 25 24 24 20 21 22 20 21 23 20 18 17 15 12 14 13 11 6 6 14 13 8 6 8 8 10 11 14 9 9
17 13 14 16 18 22 21 19 24 24 21 24 26 27 26 24 24 24 20 22 21 22 19 18 14 11 12 14 12 13 10 9 11 16 13 9 6 7 9 11 11 8 12
28 21 16 15 18 22 24 22 20 24 24 23 22 26 28 28 27 26 27 25 25 18 20 19 16 18 12 15 18 17 15 14 14 14 18 12 11 11 11 12 9 9 13
25 25 24 22 21 18 24 23 26 23 25 33 30 27 28 29 30 34 30 29 27 23 23 19 22 20 22 18 18 21 20 19 17 17 21 17 17 14 12 15 12 12 12
19 19 17 18 22 15 13 25 28 29 24 26 30 34 33 35 36 31 34 34 30 29 27 28 27 25 25 23 22 20 20 20 21 22 22 19 19 19 16 20 17 15 15
21 19 16 15 16 14 15 23 25 30 27 23 28 31 35 39 39 38 34 35 35 31 33 34 34 31 28 27 25 23 23 20 22 24 23 20 18 18 15 22 20 18 18
28 24 21 16 17 16 14 17 23 23 15 23 31 31 34 38 41 37 42 39 39 35 35 38 37 34 32 30 27 24 26 24 23 25 25 21 21 23 19 21 24 23 20
26 29 30 28 18 17 17 16 19 26 25 29 32 36 34 37 41 41 38 47 42 43 41 44 39 37 34 35 33 30 24 29 28 28 26 23 25 26 23 21 27 27 27
24 29 32 34 31 24 22 20 23 24 27 25 34 34 38 37 41 42 44 42 44 44 43 43 44 40 37 34 36 28 20 25 30 30 31 29 27 28 27 23 26 29 31
29 33 33 36 36 33 29 26 27 31 24 22 30 30 36 39 44 43 44 47 41 45 47 50 48 44 45 42 40 28 15 15 20 32 33 32 30 31 32 28 27 30 32
28 32 33 34 35 34 33 31 28 30 32 28 24 26 41 35 37 44 42 45 46 42 49 51 50 48 48 48 45 44 30 18 14 11 26 36 35 32 31 34 33 28 33
27 31 30 34 34 33 31 29 30 31 36 39 34 31 34 39 43 42 43 43 45 45 44 48 47 46 51 53 43 40 41 37 31 23 21 25 30 37 38 36 37 34 30
26 31 35 32 37 35 32 27 28 30 30 37 41 39 34 30 42 44 42 44 46 45 43 43 45 47 48 45 37 24 33 43 40 38 31 22 26 30 35 39 37 40 35
Wind_Direction
188 225 198 190 181 178 181 175 171 170 176 182 184 180 174 165 148 111 109 106 108 115 115 115 116 118 129 126 126 112 81 57 115 133 143 345 14 93 100 143 150 121 124
206 232 199 188 183 181 181 184 175 177 179 185 191 190 183 171 163 132 120 115 122 124 119 115 111 102 94 99 102 38 9 84 107 114 354 329 268 125 135 142 139 139 127
246 224 194 182 184 183 184 190 179 180 182 190 195 197 192 182 178 158 143 135 136 125 122 122 118 115 114 66 340 337 87 109 64 16 23 40 105 82 101 121 119 136 138
263 242 196 182 186 188 190 196 188 179 183 194 200 198 199 195 195 177 164 153 150 140 135 128 97 107 91 323 346 94 99 50 30 83 80 22 15 92 112 140 146 158 136
251 266 187 188 188 191 196 205 200 187 188 192 200 201 203 203 203 192 182 172 169 167 162 135 105 142 285 299 105 54 29 52 96 163 356 139 326 114 95 101 110 101 106
204 271 192 199 198 195 203 213 206 199 195 201 198 200 203 207 206 204 192 191 182 189 194 157 249 257 255 232 270 333 63 132 135 25 163 134 223 139 117 103 75 64 79
196 234 252 237 215 207 209 219 214 207 201 204 203 200 203 204 207 207 201 200 194 199 213 207 235 234 241 252 276 296 120 149 33 17 121 152 178 146 119 114 100 71 47
264 254 254 247 222 216 214 223 222 213 208 206 207 205 207 209 207 207 204 204 204 204 205 207 217 228 242 247 246 217 155 154 9 199 180 61 156 140 101 132 112 106 181
188 269 266 242 219 214 217 222 226 218 211 210 210 209 212 212 213 211 210 209 211 208 205 207 216 217 224 223 216 198 159 166 233 169 153 292 161 169 133 130 142 159 160
300 223 255 261 221 212 217 223 227 222 216 213 214 213 213 212 215 215 215 217 218 213 208 212 217 211 209 211 204 182 160 175 282 292 87 326 30 236 230 191 185 178 157
314 263 241 267 241 221 221 226 232 226 219 213 215 216 216 216 217 217 218 224 229 224 218 218 219 215 211 210 199 190 177 147 263 293 211 7 312 271 224 201 193 183 180
313 284 292 242 252 236 225 230 230 231 225 219 217 216 216 217 221 223 223 226 225 226 224 225 224 218 216 218 213 207 177 170 145 235 290 312 293 212 201 185 179 198 245
310 298 273 262 236 232 216 245 235 232 231 223 220 221 216 216 211 229 233 231 232 230 226 225 225 221 217 194 267 238 194 161 236 241 248 272 258 210 196 188 182 221 248
321 298 269 247 244 250 227 217 235 234 231 231 224 220 219 214 200 225 231 240 242 237 234 232 234 228 212 192 219 262 213 204 236 249 242 241 237 235 215 212 223 223 244
10 1 342 261 254 265 261 226 242 229 228 238 232 226 218 215 203 217 224 238 249 240 232 238 246 238 224 194 225 238 232 237 241 260 254 265 242 241 243 220 208 216 237
359 355 17 8 263 263 270 249 233 244 208 232 235 231 226 219 212 211 218 219 241 243 236 228 229 234 245 218 219 225 230 228 245 257 267 258 240 258 253 220 221 219 230
2 354 349 355 28 262 266 268 234 239 237 221 219 222 234 224 219 215 213 213 227 238 220 234 224 218 235 233 235 230 226 229 237 244 257 268 243 242 242 232 220 207 229
7 2 346 346 350 353 284 254 255 227 228 242 239 223 225 234 226 225 219 216 217 227 227 220 218 224 221 233 233 230 233 236 232 243 253 269 252 242 250 220 216 218 220
348 337 335 326 328 327 335 319 266 239 228 232 246 242 231 236 235 231 222 226 214 221 226 228 225 220 222 222 233 235 239 236 231 239 245 258 258 255 248 214 219 221 220
345 330 324 311 312 314 311 320 323 289 250 251 241 241 244 237 247 239 229 226 224 217 224 230 229 221 221 223 219 231 240 245 236 240 248 253 238 251 248 226 224 225 225
350 338 339 329 326 313 303 301 317 315 288 262 252 247 245 242 240 248 237 232 228 214 222 226 225 218 220 224 227 232 236 226 226 233 246 245 230 249 256 236 227 229 233
343 347 346 339 335 327 304 277 288 286 275 281 266 256 243 239 243 243 248 239 237 225 223 227 222 217 217 220 221 216 223 222 222 227 239 240 244 244 252 244 241 232 237
352 355 355 349 341 331 322 302 277 266 263 280 270 264 250 245 239 244 246 249 244 232 229 228 230 220 221 216 221 209 198 217 233 232 231 238 237 236 241 246 237 238 231
351 345 348 353 349 337 325 318 305 293 285 261 262 276 254 248 248 238 241 248 252 248 235 231 233 232 226 223 220 214 208 206 209 230 235 238 235 236 238 234 242 241 234
344 341 343 345 351 344 327 317 314 301 286 278 266 260 256 255 246 243 242 240 247 249 246 240 237 231 229 231 226 224 227 229 227 214 232 222 236 234 240 241 237 241 239
340 339 339 345 344 347 338 318 313 311 303 293 275 263 260 267 248 239 245 243 244 245 244 242 238 235 236 233 229 240 254 239 232 220 225 222 228 243 238 237 237 237 237
Height
1490 1491 1492 1495 1498 1501 1504 1506 1509 1510 1511 1513 1515 1517 1518 1520 1521 1521 1522 1522 1523 1524 1525 1525 1526 1527 1527 1528 1528 1529 1530 1531 1532 1532 1534 1534 1532 1532 1531 1531 1533 1534 1534
1488 1490 1492 1495 1497 1500 1503 1506 1508 1510 1512 1514 1516 1517 1519 1520 1521 1522 1523 1523 1524 1525 1526 1526 1527 1527 1528 1528 1529 1529 1530 1532 1533 1535 1536 1535 1535 1533 1533 1533 1534 1535 1535
1489 1491 1493 1496 1498 1500 1503 1505 1508 1511 1512 1514 1516 1518 1519 1520 1521 1522 1523 1524 1525 1526 1527 1527 1528 1528 1529 1529 1529 1530 1532 1533 1536 1537 1535 1535 1536 1537 1535 1535 1535 1536 1537
1490 1492 1493 1494 1497 1500 1502 1504 1508 1510 1512 1515 1516 1518 1519 1520 1521 1523 1524 1525 1526 1526 1527 1528 1528 1529 1530 1530 1530 1531 1533 1535 1537 1538 1539 1538 1538 1537 1537 1537 1537 1537 1537
1492 1492 1493 1495 1497 1500 1503 1505 1508 1509 1511 1514 1516 1518 1520 1521 1522 1523 1525 1526 1526 1527 1527 1528 1529 1529 1530 1531 1532 1533 1535 1537 1538 1537 1538 1539 1539 1539 1540 1540 1539 1539 1540
1495 1493 1495 1496 1498 1501 1503 1505 1507 1510 1511 1514 1515 1518 1520 1522 1523 1524 1525 1527 1527 1528 1528 1528 1529 1529 1530 1531 1532 1534 1536 1537 1537 1537 1536 1539 1540 1541 1541 1542 1541 1541 1543
1496 1496 1496 1498 1499 1501 1504 1506 1508 1510 1511 1514 1516 1518 1520 1521 1523 1525 1525 1526 1527 1528 1529 1529 1529 1530 1530 1531 1532 1534 1536 1537 1538 1536 1535 1540 1542 1543 1542 1542 1543 1542 1544
1497 1496 1497 1498 1499 1501 1503 1506 1508 1510 1511 1513 1516 1517 1519 1521 1522 1524 1524 1526 1527 1527 1528 1529 1529 1529 1530 1531 1532 1534 1536 1537 1538 1539 1539 1540 1542 1542 1542 1542 1543 1544 1545
1498 1496 1494 1497 1498 1500 1502 1504 1507 1509 1510 1512 1514 1516 1518 1520 1522 1523 1524 1525 1526 1527 1528 1528 1529 1529 1530 1531 1532 1534 1536 1537 1537 1538 1538 1538 1541 1543 1542 1542 1544 1545 1547
1496 1498 1495 1496 1497 1498 1501 1503 1505 1507 1509 1511 1513 1515 1516 1518 1521 1522 1524 1525 1526 1527 1528 1528 1529 1529 1529 1530 1531 1533 1535 1537 1538 1538 1538 1540 1541 1542 1543 1543 1544 1546 1547
1494 1495 1497 1495 1496 1497 1499 1501 1503 1505 1506 1508 1510 1513 1515 1516 1519 1520 1523 1524 1526 1527 1528 1528 1529 1529 1529 1530 1531 1532 1534 1537 1538 1540 1538 1541 1542 1542 1543 1544 1545 1546 1547
1494 1491 1492 1495 1495 1496 1498 1498 1501 1503 1504 1506 1507 1510 1512 1515 1517 1519 1521 1522 1523 1525 1527 1528 1529 1529 1529 1530 1531 1532 1534 1536 1539 1539 1539 1540 1539 1542 1543 1544 1545 1547 1548
1495 1494 1490 1491 1494 1495 1498 1498 1499 1500 1502 1503 1505 1507 1510 1513 1515 1518 1519 1520 1521 1522 1524 1525 1526 1528 1530 1531 1532 1534 1535 1535 1538 1538 1539 1538 1539 1540 1542 1543 1543 1546 1548
1495 1494 1491 1489 1490 1493 1496 1497 1496 1496 1498 1501 1502 1503 1506 1509 1513 1515 1516 1517 1519 1520 1522 1523 1524 1526 1528 1530 1533 1534 1536 1536 1535 1535 1537 1538 1538 1539 1540 1542 1543 1544 1546
1493 1492 1493 1488 1488 1488 1491 1493 1493 1495 1496 1497 1499 1502 1503 1505 1508 1512 1514 1514 1515 1517 1519 1519 1522 1524 1526 1528 1531 1533 1535 1537 1537 1534 1534 1535 1537 1538 1538 1539 1541 1541 1544
1492 1490 1489 1491 1487 1485 1485 1489 1490 1491 1494 1495 1495 1496 1499 1501 1504 1507 1510 1513 1512 1514 1515 1517 1519 1519 1522 1525 1527 1530 1532 1534 1535 1534 1533 1534 1536 1537 1537 1538 1538 1540 1542
1494 1493 1490 1489 1487 1487 1483 1482 1484 1485 1487 1490 1491 1494 1495 1499 1500 1502 1504 1507 1509 1511 1514 1515 1517 1519 1519 1520 1522 1525 1527 1530 1532 1533 1530 1533 1534 1534 1535 1536 1537 1538 1539
1492 1489 1486 1483 1484 1484 1483 1482 1476 1474 1472 1481 1486 1489 1491 1491 1495 1496 1499 1501 1503 1505 1508 1510 1513 1515 1517 1516 1518 1519 1522 1525 1526 1528 1528 1530 1530 1531 1531 1533 1534 1536 1537
1495 1490 1490 1487 1483 1479 1478 1477 1474 1465 1470 1471 1480 1482 1485 1485 1487 1491 1492 1494 1498 1501 1501 1503 1505 1508 1510 1512 1512 1513 1516 1519 1521 1523 1524 1526 1526 1527 1527 1529 1531 1532 1534
1496 1494 1492 1488 1484 1479 1474 1470 1471 1468 1446 1465 1476 1478 1478 1479 1479 1483 1485 1486 1490 1494 1495 1494 1497 1500 1504 1506 1508 1508 1509 1512 1514 1517 1519 1521 1522 1522 1524 1525 1527 1528 1530
1498 1494 1490 1487 1482 1478 1473 1466 1463 1462 1466 1469 1469 1473 1474 1473 1472 1473 1475 1477 1480 1483 1485 1484 1488 1493 1496 1499 1502 1506 1506 1505 1506 1509 1514 1516 1516 1519 1520 1521 1522 1524 1525
1497 1492 1487 1486 1481 1477 1473 1469 1467 1465 1463 1464 1464 1462 1466 1467 1464 1464 1465 1467 1472 1478 1478 1477 1481 1485 1488 1492 1492 1497 1500 1503 1501 1501 1505 1509 1512 1513 1514 1516 1517 1519 1520
1495 1490 1486 1483 1479 1473 1470 1466 1462 1460 1455 1456 1457 1458 1455 1457 1457 1457 1460 1459 1464 1467 1470 1468 1471 1476 1479 1482 1483 1486 1490 1492 1495 1496 1497 1501 1505 1507 1508 1509 1511 1513 1515
1495 1490 1485 1481 1478 1471 1466 1462 1459 1457 1452 1446 1446 1448 1450 1450 1449 1449 1451 1454 1453 1458 1460 1462 1463 1468 1471 1473 1475 1473 1476 1481 1486 1491 1492 1493 1497 1498 1501 1504 1503 1507 1509
1494 1489 1484 1478 1474 1470 1465 1460 1455 1452 1448 1442 1440 1438 1438 1440 1440 1441 1441 1444 1445 1448 1453 1454 1455 1457 1459 1462 1463 1469 1473 1473 1478 1475 1485 1483 1490 1491 1493 1496 1497 1499 1502
1492 1486 1479 1475 1470 1466 1461 1457 1452 1447 1443 1437 1433 1431 1429 1430 1429 1429 1435 1435 1435 1439 1443 1446 1448 1448 1450 1454 1455 1466 1471 1471 1468 1472 1473 1476 1476 1481 1482 1485 1488 1491 1493